Location: ?????????
(53.2086°N, 54.0693°E)
Time: 20:30:06
(UTC+00:00)

Cosmos 1606 - Pass Details

Date: 08 December 2019
Orbit: 505 x 528 km, 82.5° (Epoch: 21 January)

Event Time Altitude Azimuth Distance (km) Brightness Sun altitude
Rises 12:41:20 0° 190° (S) 2,602 7.0 -5.1°
Reaches altitude 10° 12:43:26 10° 191° (SSW) 1,724 6.0 -5.3°
Maximum altitude 12:47:13 86° 278° (W) 520 2.8 -5.8°
Drops below altitude 10° 12:51:04 10° 10° (N) 1,752 5.0 -6.3°
Sets 12:53:13 0° 11° (N) 2,648 5.9 -6.6°
